DW5612 Houston TX US current weather conditions

sailwx.info

Wind from 005 at 0 knots gusting 6

Air temperature 22.8° C
Dewpoint 13.3° C

Last reported at 2019-Dec-06 21:01 UTC.
Time now 2019-Dec-06 21:30 UTC

Location: N 29°44' W 095°24'.
View on Google Maps.

See reports from other nearby stations

  
Tides and Currents Weather Stations Pressure Air Temp Water Temp Dewpoint Dewpoint Depression Visibility Wind Speed Wind Dir Waves Ship Positions
date/time (UTC)wind fromknots sea level pressurealtimeterstation pressurevisibilityair tempwater tempwave heightnotes
2019-Dec-06 21:01 005 0 gusting 6 22.8
2019-Dec-06 20:56 306 0 gusting 6 22.8
2019-Dec-06 20:51 013 0 gusting 6 22.8
2019-Dec-06 20:46 347 0 gusting 6 22.8
2019-Dec-06 20:41 315 0 gusting 8 22.8
2019-Dec-06 20:36 304 1 gusting 8 22.8
2019-Dec-06 20:31 295 1 gusting 8 22.8
2019-Dec-06 20:25 315 0 gusting 8 22.8
2019-Dec-06 20:20 302 0 gusting 9 22.8
2019-Dec-06 20:15 329 0 gusting 9 22.8
2019-Dec-06 20:10 010 0 gusting 6 22.8
2019-Dec-06 20:05 294 0 gusting 8 22.8
2019-Dec-06 20:00 200 1 gusting 8 22.8
2019-Dec-06 19:55 030 1 gusting 6 22.8
2019-Dec-06 19:50 350 1 gusting 6 22.8
2019-Dec-06 19:45 019 0 gusting 6 22.8
2019-Dec-06 19:40 333 0 gusting 10 22.8
2019-Dec-06 19:35 322 0 gusting 10 22.8
2019-Dec-06 19:30 304 0 gusting 7 22.8
2019-Dec-06 19:25 334 1 gusting 10 22.8
2019-Dec-06 19:20 311 1 gusting 10 22.2
2019-Dec-06 19:15 091 0 gusting 6 22.2
2019-Dec-06 19:10 345 1 gusting 6 22.2
2019-Dec-06 19:05 015 1 gusting 6 22.2
2019-Dec-06 19:00 236 1 gusting 7 22.2
2019-Dec-06 18:55 271 0 gusting 7 22.2
2019-Dec-06 18:50 288 0 gusting 9 22.2
2019-Dec-06 18:45 284 1 gusting 9 21.7
2019-Dec-06 18:40 334 1 gusting 6 22.2
2019-Dec-06 18:35 334 0 gusting 5 22.2
2019-Dec-06 18:30 023 0 gusting 5 22.2
2019-Dec-06 18:25 288 0 gusting 6 22.2
2019-Dec-06 18:20 034 1 gusting 6 22.2
2019-Dec-06 18:15 342 1 gusting 6 21.7
2019-Dec-06 18:10 339 0 gusting 5 21.7
2019-Dec-06 18:05 346 0 gusting 6 21.7
2019-Dec-06 18:00 22.2
2019-Dec-06 17:55 326 0 gusting 4 22.2
2019-Dec-06 17:50 280 0 gusting 6 21.7
2019-Dec-06 17:45 349 0 gusting 6 21.7
2019-Dec-06 17:40 294 0 gusting 6 21.7
2019-Dec-06 17:35 341 0 gusting 6 21.7
2019-Dec-06 17:30 263 0 gusting 5 21.7
2019-Dec-06 17:25 342 1 gusting 6 21.7
2019-Dec-06 17:20 349 0 gusting 6 21.7
2019-Dec-06 17:15 307 0 gusting 6 21.7
2019-Dec-06 17:10 346 1 gusting 6 21.7
2019-Dec-06 17:05 307 0 gusting 6 21.7
2019-Dec-06 17:00 300 1 gusting 6 21.1
2019-Dec-06 16:55 348 2 gusting 8 21.1
2019-Dec-06 16:50 018 2 gusting 8 21.1
2019-Dec-06 16:45 232 1 gusting 10 21.7
2019-Dec-06 16:40 298 1 gusting 10 21.7
2019-Dec-06 16:35 321 0 gusting 6 21.7
2019-Dec-06 16:30 029 1 gusting 6 21.7
2019-Dec-06 16:25 199 1 gusting 6 21.7
2019-Dec-06 16:20 035 1 gusting 6 21.7
2019-Dec-06 16:15 254 1 gusting 6 21.7
2019-Dec-06 16:10 344 1 gusting 6 21.7
2019-Dec-06 16:05 022 1 gusting 6 21.7
2019-Dec-06 16:00 207 1 gusting 6 21.7
2019-Dec-06 15:55 258 1 gusting 6 21.7
2019-Dec-06 15:50 355 1 gusting 6 21.1
2019-Dec-06 15:45 346 1 gusting 6 21.1
2019-Dec-06 15:40 259 0 gusting 6 21.1
2019-Dec-06 15:35 350 0 gusting 6 20.6
2019-Dec-06 15:30 346 0 gusting 3 20.6
2019-Dec-06 15:25 250 0 gusting 3 20.6
2019-Dec-06 15:20 267 0 gusting 3 20.0
2019-Dec-06 15:15 342 0 gusting 4 20.0
2019-Dec-06 15:10 257 1 gusting 7 20.0
2019-Dec-06 15:05 279 1 gusting 7 20.0
2019-Dec-06 15:00 194 0 gusting 5 20.0
2019-Dec-06 14:55 336 0 gusting 6 20.0
2019-Dec-06 14:50 278 0 gusting 6 19.4
2019-Dec-06 14:45 010 0 gusting 4 19.4
2019-Dec-06 14:40 256 0 gusting 5 19.4
2019-Dec-06 14:35 345 0 gusting 5 19.4
2019-Dec-06 14:30 277 0 gusting 5 19.4
2019-Dec-06 14:25 232 0 gusting 5 19.4
2019-Dec-06 14:20 315 0 gusting 7 19.4
2019-Dec-06 14:15 242 0 gusting 7 19.4
2019-Dec-06 14:09 269 0 gusting 5 19.4
2019-Dec-06 14:04 068 0 gusting 5 19.4
2019-Dec-06 13:59 291 0 gusting 6 19.4
2019-Dec-06 13:54 257 0 gusting 6 19.4
2019-Dec-06 13:49 277 0 gusting 3 19.4
2019-Dec-06 13:44 198 19.4
2019-Dec-06 13:39 281 0 gusting 5 19.4
2019-Dec-06 13:34 198 0 gusting 4 19.4
2019-Dec-06 13:29 355 0 gusting 6 19.4
2019-Dec-06 13:24 322 0 gusting 6 19.4
2019-Dec-06 13:19 314 0 gusting 4 19.4
2019-Dec-06 13:14 323 0 gusting 5 19.4
2019-Dec-06 13:09 19.4
2019-Dec-06 13:04 275 0 gusting 6 19.4
2019-Dec-06 12:59 284 0 gusting 6 19.4
2019-Dec-06 12:54 321 0 gusting 5 19.4
2019-Dec-06 12:49 281 19.4
2019-Dec-06 12:44 338 0 gusting 3 19.4
2019-Dec-06 12:39 264 19.4
2019-Dec-06 12:34 267 18.9
2019-Dec-06 12:29 209 18.9
2019-Dec-06 12:24 296 18.9
2019-Dec-06 12:19 286 18.3
2019-Dec-06 12:14 240 18.3
2019-Dec-06 12:09 240 18.3
2019-Dec-06 12:04 240 17.8
2019-Dec-06 11:59 157 17.8
2019-Dec-06 11:54 157 17.8
2019-Dec-06 11:49 158 17.8
2019-Dec-06 11:44 158 17.8
2019-Dec-06 11:39 158 17.2
2019-Dec-06 11:34 158 17.2
2019-Dec-06 11:29 158 17.2
2019-Dec-06 11:24 158 17.2
2019-Dec-06 11:19 157 17.2
2019-Dec-06 11:14 158 17.2
2019-Dec-06 11:09 158 17.2
2019-Dec-06 11:04 157 17.2
2019-Dec-06 10:59 158 17.2
2019-Dec-06 10:54 158 17.2
2019-Dec-06 10:49 158 17.2
2019-Dec-06 10:44 158 17.2
2019-Dec-06 10:39 158 17.2
2019-Dec-06 10:34 157 17.2
2019-Dec-06 10:29 158 17.2
2019-Dec-06 10:24 158 17.2
2019-Dec-06 10:19 158 17.2
2019-Dec-06 10:14 158 17.2
2019-Dec-06 10:09 158 17.2
2019-Dec-06 10:04 157 17.2
2019-Dec-06 09:59 157 17.2
2019-Dec-06 09:54 157 17.2
2019-Dec-06 09:49 157 17.2
2019-Dec-06 09:44 157 17.2
2019-Dec-06 09:38 157 17.2
2019-Dec-06 09:33 157 17.2
2019-Dec-06 09:28 157 17.2
2019-Dec-06 09:23 157 17.2
2019-Dec-06 09:19 157 17.8
2019-Dec-06 06:07 153 18.3
2019-Dec-06 06:02 142 18.3
2019-Dec-06 05:57 150 18.3
2019-Dec-06 05:52 106 18.3
2019-Dec-06 05:47 191 18.9
2019-Dec-06 05:42 191 18.9
2019-Dec-06 05:37 166 18.9
2019-Dec-06 05:32 165 18.9
2019-Dec-06 05:27 196 18.9
2019-Dec-06 05:22 199 18.9
2019-Dec-06 05:17 201 18.9
2019-Dec-06 05:12 210 19.4
2019-Dec-06 05:07 169 19.4
2019-Dec-06 05:02 167 19.4
2019-Dec-06 04:57 123 19.4
2019-Dec-06 04:52 157 19.4
2019-Dec-06 04:47 168 19.4
2019-Dec-06 04:42 216 19.4
2019-Dec-06 04:37 176 19.4
2019-Dec-06 04:32 118 19.4
2019-Dec-06 04:27 150 0 gusting 5 19.4
2019-Dec-06 04:22 176 0 gusting 5 19.4
2019-Dec-06 04:17 164 19.4
2019-Dec-06 04:12 212 19.4
2019-Dec-06 04:07 173 19.4
2019-Dec-06 04:02 183 0 gusting 5 19.4
2019-Dec-06 03:57 168 0 gusting 5 19.4
2019-Dec-06 03:52 149 19.4
2019-Dec-06 03:47 171 19.4
2019-Dec-06 03:42 164 0 gusting 6 19.4
2019-Dec-06 03:37 167 0 gusting 6 19.4
2019-Dec-06 03:32 134 19.4
2019-Dec-06 03:27 161 19.4
2019-Dec-06 03:22 184 19.4
2019-Dec-06 03:17 165 0 gusting 3 19.4
2019-Dec-06 03:12 137 0 gusting 3 19.4
2019-Dec-06 03:07 111 19.4
2019-Dec-06 03:02 187 19.4
2019-Dec-06 02:57 179 19.4
2019-Dec-06 02:52 163 19.4
2019-Dec-06 02:47 157 19.4
2019-Dec-06 02:42 164 0 gusting 6 19.4
2019-Dec-06 02:37 129 0 gusting 6 19.4
2019-Dec-06 02:32 169 19.4
2019-Dec-06 02:27 188 0 gusting 4 19.4
2019-Dec-06 02:22 145 19.4
2019-Dec-06 02:17 159 19.4
2019-Dec-06 02:12 134 0 gusting 5 19.4
2019-Dec-06 02:07 151 0 gusting 6 19.4
2019-Dec-06 02:02 108 0 gusting 6 19.4
2019-Dec-06 01:57 221 0 gusting 6 19.4
2019-Dec-06 01:52 175 0 gusting 6 19.4
2019-Dec-06 01:47 163 19.4
2019-Dec-06 01:42 161 19.4
2019-Dec-06 01:37 184 19.4
2019-Dec-06 01:31 150 19.4
2019-Dec-06 01:26 191 19.4
2019-Dec-06 01:21 165 19.4
2019-Dec-06 01:16 089 19.4
2019-Dec-06 01:11 148 19.4
2019-Dec-06 01:06 142 0 gusting 4 19.4
2019-Dec-06 01:01 138 0 gusting 4 19.4
2019-Dec-06 00:56 180 19.4
2019-Dec-06 00:51 170 19.4
2019-Dec-06 00:46 153 20.0
2019-Dec-06 00:41 134 20.0
2019-Dec-06 00:36 178 20.0
2019-Dec-06 00:31 160 20.0
2019-Dec-06 00:26 156 20.0
2019-Dec-06 00:21 181 20.0
2019-Dec-06 00:16 161 20.6
2019-Dec-06 00:11 161 0 gusting 5 20.6
2019-Dec-06 00:06 178 0 gusting 8 20.6
2019-Dec-06 00:01 176 0 gusting 8 20.6
2019-Dec-05 23:56 126 0 gusting 4 20.6
2019-Dec-05 23:51 172 20.6
2019-Dec-05 23:46 183 20.6
2019-Dec-05 23:41 121 0 gusting 4 20.6
2019-Dec-05 23:36 186 21.1
2019-Dec-05 23:31 208 21.1
2019-Dec-05 23:26 153 21.1
2019-Dec-05 23:21 167 21.1
2019-Dec-05 23:16 169 21.7
2019-Dec-05 23:11 161 0 gusting 6 21.7
2019-Dec-05 23:06 181 0 gusting 6 21.7
2019-Dec-05 23:01 152 21.7
2019-Dec-05 22:56 186 0 gusting 6 21.7
2019-Dec-05 22:51 196 0 gusting 6 21.7
2019-Dec-05 22:46 163 0 gusting 6 22.2
2019-Dec-05 22:41 153 0 gusting 9 22.2
2019-Dec-05 22:36 198 1 gusting 9 22.2
2019-Dec-05 22:31 115 0 gusting 7 22.2
2019-Dec-05 22:26 196 0 gusting 7 22.8
2019-Dec-05 22:21 148 0 gusting 6 22.8
2019-Dec-05 22:16 141 0 gusting 6 22.8
2019-Dec-05 22:11 161 0 gusting 6 22.8
2019-Dec-05 22:06 246 1 gusting 6 22.8
2019-Dec-05 22:01 181 0 gusting 6 22.8
2019-Dec-05 21:56 200 0 gusting 6 22.8
2019-Dec-05 21:51 159 0 gusting 5 22.8
2019-Dec-05 21:46 172 23.3
2019-Dec-05 21:41 154 0 gusting 6 23.3
2019-Dec-05 21:36 185 1 gusting 6 23.3
2019-Dec-05 21:31 188 1 gusting 6 23.3
2019-Dec-05 21:26 163 1 gusting 8 23.3
2019-Dec-05 21:21 165 1 gusting 8 23.3
2019-Dec-05 21:16 180 1 gusting 10 23.3
2019-Dec-05 21:11 183 2 gusting 10 23.9
2019-Dec-05 21:06 150 2 gusting 12 23.3
2019-Dec-05 21:01 191 1 gusting 12 23.9
2019-Dec-05 20:56 186 0 gusting 6 23.9
2019-Dec-05 20:51 130 0 gusting 6 23.9
2019-Dec-05 20:46 188 0 gusting 6 23.9
2019-Dec-05 20:41 168 1 gusting 6 23.3
2019-Dec-05 20:35 179 1 gusting 6 23.3
2019-Dec-05 20:30 165 0 gusting 8 23.3
2019-Dec-05 20:25 126 0 gusting 8 23.3
2019-Dec-05 20:20 147 0 gusting 4 23.3
2019-Dec-05 20:15 179 0 gusting 4 23.3
2019-Dec-05 20:10 173 0 gusting 4 23.3
2019-Dec-05 20:05 204 1 gusting 5 23.3
2019-Dec-05 20:00 142 1 gusting 6 23.3
2019-Dec-05 19:55 172 0 gusting 6 23.3
2019-Dec-05 19:50 146 0 gusting 5 23.3
2019-Dec-05 19:45 162 0 gusting 6 23.3
2019-Dec-05 19:40 175 0 gusting 6 23.3
2019-Dec-05 19:35 138 23.9
2019-Dec-05 19:30 106 0 gusting 4 23.9
2019-Dec-05 19:25 206 0 gusting 4 23.9
2019-Dec-05 19:20 142 23.9
2019-Dec-05 19:15 159 23.9
2019-Dec-05 19:10 159 23.3
2019-Dec-05 19:05 147 23.3
2019-Dec-05 19:00 205 23.3
2019-Dec-05 18:55 155 23.3
2019-Dec-05 18:50 233 23.3
2019-Dec-05 18:45 160 0 gusting 4 23.3
2019-Dec-05 18:40 182 0 gusting 4 23.3
2019-Dec-05 18:35 161 0 gusting 3 23.3
2019-Dec-05 18:30 133 22.8
2019-Dec-05 18:25 151 0 gusting 6 22.8
2019-Dec-05 18:20 223 0 gusting 6 22.8
2019-Dec-05 18:15 182 0 gusting 6 23.3
2019-Dec-05 18:10 164 22.8
2019-Dec-05 18:05 190 0 gusting 5 22.8
2019-Dec-05 18:00 176 0 gusting 7 22.8
2019-Dec-05 17:55 183 0 gusting 7 22.8
2019-Dec-05 17:50 195 1 gusting 7 22.8
2019-Dec-05 17:45 144 1 gusting 7 22.8
2019-Dec-05 17:40 186 1 gusting 9 22.8
2019-Dec-05 17:35 177 1 gusting 9 22.8
2019-Dec-05 17:30 202 0 gusting 5 22.8
2019-Dec-05 17:25 218 0 gusting 4 22.2
2019-Dec-05 17:20 157 0 gusting 4 22.2
2019-Dec-05 17:15 188 0 gusting 7 21.7
2019-Dec-05 17:10 149 1 gusting 7 21.7
2019-Dec-05 17:05 185 0 gusting 5 22.2
2019-Dec-05 17:00 132 0 gusting 4 22.2
2019-Dec-05 16:55 115 22.8
2019-Dec-05 16:50 192 0 gusting 5 22.2
2019-Dec-05 16:45 151 0 gusting 5 22.2
2019-Dec-05 16:40 207 0 gusting 4 21.7
2019-Dec-05 16:35 171 0 gusting 4 21.7
2019-Dec-05 16:25 159 0 gusting 5 21.7
2019-Dec-05 16:20 184 0 gusting 6 21.1
2019-Dec-05 16:15 149 0 gusting 6 21.1
2019-Dec-05 16:10 086 21.1
2019-Dec-05 16:05 167 0 gusting 4 20.6
2019-Dec-05 16:00 128 0 gusting 4 20.6
2019-Dec-05 15:55 156 20.0
2019-Dec-05 15:50 157 20.0
2019-Dec-05 15:45 154 0 gusting 4 19.4
2019-Dec-05 15:40 177 0 gusting 4 19.4
2019-Dec-05 15:35 198 19.4
2019-Dec-05 15:30 210 18.9
2019-Dec-05 15:24 184 18.3
2019-Dec-05 15:19 202 18.3
2019-Dec-05 15:14 171 0 gusting 4 18.3
2019-Dec-05 15:09 148 0 gusting 3 17.8
2019-Dec-05 15:04 184 17.8
2019-Dec-05 14:59 167 17.2
2019-Dec-05 14:54 141 16.7
2019-Dec-05 14:49 196 16.7
2019-Dec-05 14:44 155 16.1
2019-Dec-05 14:39 171 15.6
2019-Dec-05 14:34 161 15.6
2019-Dec-05 14:29 163 15.0
2019-Dec-05 14:24 075 14.4
2019-Dec-05 14:19 074 13.9
2019-Dec-05 14:14 111 13.3
2019-Dec-05 14:09 111 13.3
2019-Dec-05 14:04 111 13.3
2019-Dec-05 13:59 111 13.3
2019-Dec-05 13:54 111 13.3
2019-Dec-05 13:49 111 13.3
2019-Dec-05 13:44 133 13.3
2019-Dec-05 13:39 133 12.8
2019-Dec-05 13:34 133 12.8
2019-Dec-05 13:29 133 12.8
2019-Dec-05 13:24 133 12.8
2019-Dec-05 13:19 133 12.8
2019-Dec-05 13:14 133 12.8
2019-Dec-05 13:09 133 12.2
2019-Dec-05 13:04 133 12.2
2019-Dec-05 12:59 133 12.8
2019-Dec-05 12:54 133 12.8
2019-Dec-05 12:49 133 12.2
2019-Dec-05 12:44 133 12.2
2019-Dec-05 12:39 133 12.2
2019-Dec-05 12:34 133 12.2
2019-Dec-05 12:29 133 12.2
2019-Dec-05 12:24 133 12.2
2019-Dec-05 12:19 133 11.7
2019-Dec-05 12:14 133 11.7
2019-Dec-05 12:09 133 11.7
2019-Dec-05 12:04 133 11.7
2019-Dec-05 11:59 133 11.7
2019-Dec-05 11:53 133 11.7
2019-Dec-05 11:48 133 11.7
2019-Dec-05 11:43 133 11.7
2019-Dec-05 11:38 133 11.7
2019-Dec-05 11:33 133 11.7
2019-Dec-05 11:28 133 11.7
2019-Dec-05 11:23 133 11.7
2019-Dec-05 11:18 133 11.7
2019-Dec-05 11:13 133 11.7
2019-Dec-05 11:08 133 11.1
2019-Dec-05 11:03 133 11.1
2019-Dec-05 10:58 133 11.1
2019-Dec-05 10:53 133 11.1
2019-Dec-05 10:48 133 10.6
2019-Dec-05 10:43 133 10.6
2019-Dec-05 10:38 133 10.6
2019-Dec-05 10:33 133 10.6
2019-Dec-05 10:28 133 10.6
2019-Dec-05 10:23 133 10.6
2019-Dec-05 10:18 133 10.6
2019-Dec-05 10:13 133 10.6
2019-Dec-05 10:08 133 10.6
2019-Dec-05 10:03 133 10.6
2019-Dec-05 09:58 133 10.6
2019-Dec-05 09:53 133 10.6
2019-Dec-05 09:48 133 10.6
2019-Dec-05 09:43 133 10.6
2019-Dec-05 09:38 133 10.6
2019-Dec-05 09:33 133 10.6
2019-Dec-05 09:28 133 10.6
2019-Dec-05 09:23 133 10.6
2019-Dec-05 09:18 133 10.6
2019-Dec-05 09:13 133 10.6
2019-Dec-05 09:08 133 10.6
2019-Dec-05 09:03 133 10.6
2019-Dec-05 08:58 133 10.6
2019-Dec-05 08:53 133 10.6
2019-Dec-05 08:48 133 11.1
2019-Dec-05 08:43 133 11.1
2019-Dec-05 08:38 133 11.1
2019-Dec-05 08:33 133 11.1
2019-Dec-05 08:28 133 11.1
2019-Dec-05 08:23 133 11.1
2019-Dec-05 08:18 133 11.1
2019-Dec-05 08:13 133 11.1
2019-Dec-05 08:08 133 11.1
2019-Dec-05 08:02 133 11.1
2019-Dec-05 07:57 133 11.1
2019-Dec-05 07:52 133 11.1
2019-Dec-05 07:47 133 11.7
2019-Dec-05 07:42 133 11.7
2019-Dec-05 07:37 133 11.7
2019-Dec-05 07:32 133 11.7
2019-Dec-05 07:27 133 11.7
2019-Dec-05 07:22 133 11.7
2019-Dec-05 07:17 133 11.7
2019-Dec-05 07:12 133 11.7
2019-Dec-05 07:07 133 11.7
2019-Dec-05 07:02 133 11.7
2019-Dec-05 06:57 133 11.7
2019-Dec-05 06:52 133 11.7
2019-Dec-05 06:47 133 11.7
2019-Dec-05 06:42 133 11.7
2019-Dec-05 06:37 133 11.7
2019-Dec-05 06:32 133 11.7
2019-Dec-05 06:27 133 11.7
2019-Dec-05 06:22 133 12.2
2019-Dec-05 06:17 133 12.2
2019-Dec-05 06:12 133 12.2
2019-Dec-05 06:07 133 12.2
2019-Dec-05 06:02 133 12.8
2019-Dec-05 05:57 133 12.8
2019-Dec-05 05:52 133 12.8
2019-Dec-05 05:47 133 12.8
2019-Dec-05 05:42 133 12.8
2019-Dec-05 05:37 133 12.8
2019-Dec-05 05:32 133 12.8
2019-Dec-05 05:27 133 12.8
2019-Dec-05 05:22 332 12.2
2019-Dec-05 05:17 331 12.2
2019-Dec-05 05:12 331 12.8
2019-Dec-05 05:07 331 12.8
2019-Dec-05 05:01 331 12.8
2019-Dec-05 04:57 331 12.8
2019-Dec-05 04:51 331 12.8
2019-Dec-05 04:46 331 12.8
2019-Dec-05 04:41 331 12.8
2019-Dec-05 04:36 331 12.8
2019-Dec-05 04:31 331 12.8
2019-Dec-05 04:26 331 12.8
2019-Dec-05 04:21 331 12.8
2019-Dec-05 04:16 331 12.8
2019-Dec-05 04:11 331 12.8
2019-Dec-05 04:06 331 12.8
2019-Dec-05 04:01 331 12.8
2019-Dec-05 03:56 331 12.8
2019-Dec-05 03:51 331 12.8
2019-Dec-05 03:46 331 12.8
2019-Dec-05 03:41 331 13.3
2019-Dec-05 03:36 331 13.3
2019-Dec-05 03:31 331 13.3
2019-Dec-05 03:26 331 13.3
2019-Dec-05 03:21 331 13.3
2019-Dec-05 03:16 331 13.3
2019-Dec-05 03:11 331 13.3
2019-Dec-05 03:06 331 13.3
2019-Dec-05 03:01 331 13.3
2019-Dec-05 02:56 331 13.3
2019-Dec-05 02:51 331 13.3
2019-Dec-05 02:46 331 13.3
2019-Dec-05 02:41 331 13.3
2019-Dec-05 02:36 331 13.9
2019-Dec-05 02:31 331 13.9
2019-Dec-05 02:26 331 13.9
2019-Dec-05 02:21 331 13.9
2019-Dec-05 02:16 331 13.9
2019-Dec-05 02:11 331 13.9
2019-Dec-05 02:06 331 13.9
2019-Dec-05 02:00 331 13.9
2019-Dec-05 01:55 331 13.9
2019-Dec-05 01:50 331 14.4
2019-Dec-05 01:45 331 14.4
2019-Dec-05 01:40 331 14.4
2019-Dec-05 01:36 331 14.4
2019-Dec-05 01:30 331 14.4
2019-Dec-05 01:25 331 14.4
2019-Dec-05 01:20 331 15.0
2019-Dec-05 01:15 331 15.0
2019-Dec-05 01:10 331 15.0
2019-Dec-05 01:05 331 15.0
2019-Dec-05 01:00 331 15.6
2019-Dec-05 00:55 331 15.6
2019-Dec-05 00:50 331 15.6
2019-Dec-05 00:45 331 15.6
2019-Dec-05 00:40 331 16.1
2019-Dec-05 00:35 331 16.1
2019-Dec-05 00:30 331 16.1
2019-Dec-05 00:25 331 16.7
2019-Dec-05 00:20 331 16.7
2019-Dec-05 00:15 331 16.7
2019-Dec-05 00:10 331 16.7
2019-Dec-05 00:05 331 16.7
2019-Dec-05 00:00 331 17.2
2019-Dec-04 23:55 331 17.2
2019-Dec-04 23:50 331 17.2
2019-Dec-04 23:45 331 17.8
2019-Dec-04 23:40 331 17.8
2019-Dec-04 23:35 331 18.3
2019-Dec-04 23:30 331 18.3
2019-Dec-04 23:25 331 18.9
2019-Dec-04 23:20 331 18.9
2019-Dec-04 23:15 331 19.4
2019-Dec-04 23:10 331 19.4
2019-Dec-04 23:05 331 20.0
2019-Dec-04 23:00 331 20.0
2019-Dec-04 22:55 331 20.0
2019-Dec-04 22:50 331 20.6
2019-Dec-04 22:45 331 20.6
2019-Dec-04 22:40 332 20.6
2019-Dec-04 22:35 332 20.6
2019-Dec-04 22:30 331 21.1
2019-Dec-04 22:25 331 21.1
2019-Dec-04 22:20 332 21.1
2019-Dec-04 22:15 331 21.1
2019-Dec-04 22:10 331 21.7
2019-Dec-04 22:05 331 21.7
2019-Dec-04 22:00 332 21.7
2019-Dec-04 21:55 331 22.2
2019-Dec-04 21:50 331 22.2
2019-Dec-04 21:45 331 22.2
2019-Dec-04 21:40 331 22.2
2019-Dec-04 21:35 332 22.2
2019-Dec-04 21:29 332 22.2
2019-Dec-04 21:24 331 22.8
2019-Dec-04 21:19 331 22.8
2019-Dec-04 21:14 331 22.8
2019-Dec-04 21:09 331 22.8
2019-Dec-04 21:04 355 23.3